EN

Hourly Weather Dzierzawa

Today, 31 October, Saturday

Time Temperature Precipitation Wind Pressure Humidity
00:00 +9°C° 0.6 mm 2 mps 733 mmHg 96%
01:00 +9°C° 0.6 mm 2 mps 734 mmHg 96%
02:00 +9°C° 0.3 mm 2 mps 734 mmHg 95%
03:00 +9°C° 0.3 mm 2 mps 734 mmHg 95%
04:00 +8°C° 0.3 mm 2 mps 734 mmHg 94%
05:00 +8°C° 0.1 mm 2 mps 735 mmHg 93%
06:00 +8°C° 0.1 mm 2 mps 735 mmHg 92%
07:00 +8°C° 0.1 mm 2 mps 736 mmHg 92%
08:00 +8°C° 0 mm 2 mps 736 mmHg 86%
09:00 +9°C° 0 mm 2 mps 737 mmHg 80%
10:00 +11°C° 0 mm 1 mps 737 mmHg 74%
11:00 +11°C° 0 mm 1 mps 737 mmHg 69%
12:00 +12°C° 0 mm 1 mps 737 mmHg 64%
13:00 +12°C° 0 mm 1 mps 738 mmHg 59%
14:00 +12°C° 0 mm 1 mps 738 mmHg 61%
15:00 +11°C° 0 mm 1 mps 738 mmHg 64%
16:00 +11°C° 0 mm 1 mps 738 mmHg 67%
17:00 +10°C° 0 mm 1 mps 738 mmHg 71%
18:00 +9°C° 0 mm 1 mps 738 mmHg 74%
19:00 +9°C° 0 mm 1 mps 738 mmHg 78%
20:00 +8°C° 0 mm 1 mps 738 mmHg 80%
21:00 +7°C° 0 mm 2 mps 738 mmHg 82%
22:00 +6°C° 0 mm 2 mps 738 mmHg 84%
23:00 +6°C° 0 mm 2 mps 738 mmHg 84%

Tomorrow, 1 November, Sunday

Time Temperature Precipitation Wind Pressure Humidity
00:00 +6°C° 0 mm 2 mps 738 mmHg 85%
01:00 +6°C° 0 mm 2 mps 738 mmHg 85%
02:00 +5°C° 0 mm 2 mps 737 mmHg 85%
03:00 +5°C° 0 mm 2 mps 737 mmHg 85%
04:00 +4°C° 0 mm 3 mps 737 mmHg 85%
05:00 +4°C° 0 mm 3 mps 736 mmHg 84%
06:00 +4°C° 0 mm 3 mps 736 mmHg 82%
07:00 +5°C° 0 mm 2 mps 736 mmHg 81%
08:00 +5°C° 0 mm 3 mps 736 mmHg 78%
09:00 +8°C° 0 mm 3 mps 736 mmHg 74%
10:00 +9°C° 0 mm 3 mps 736 mmHg 71%
11:00 +10°C° 0 mm 3 mps 736 mmHg 71%
12:00 +11°C° 0 mm 4 mps 735 mmHg 72%
13:00 +12°C° 0 mm 4 mps 735 mmHg 72%
14:00 +11°C° 0 mm 4 mps 734 mmHg 75%
15:00 +11°C° 0 mm 3 mps 734 mmHg 78%
16:00 +10°C° 0 mm 3 mps 734 mmHg 81%
17:00 +10°C° 0.3 mm 4 mps 733 mmHg 84%
18:00 +10°C° 0.3 mm 4 mps 733 mmHg 88%
19:00 +8°C° 0.3 mm 4 mps 733 mmHg 91%
20:00 +8°C° 0.9 mm 4 mps 733 mmHg 91%
21:00 +8°C° 0.9 mm 4 mps 733 mmHg 92%
22:00 +8°C° 0.9 mm 4 mps 733 mmHg 92%
23:00 +10°C° 0.2 mm 4 mps 733 mmHg 92%

Day after tomorrow, 2 November, Monday

Time Temperature Precipitation Wind Pressure Humidity
00:00 +10°C° 0.2 mm 4 mps 733 mmHg 92%
01:00 +10°C° 0.2 mm 4 mps 732 mmHg 92%
02:00 +10°C° 0.1 mm 4 mps 732 mmHg 93%
03:00 +10°C° 0.1 mm 4 mps 732 mmHg 93%
04:00 +10°C° 0.1 mm 4 mps 732 mmHg 93%
05:00 +10°C° 0 mm 4 mps 733 mmHg 94%
06:00 +10°C° 0 mm 4 mps 733 mmHg 94%
07:00 +10°C° 0 mm 3 mps 733 mmHg 95%
08:00 +11°C° 0.4 mm 3 mps 733 mmHg 95%
09:00 +11°C° 0.4 mm 3 mps 733 mmHg 96%
10:00 +11°C° 0.4 mm 3 mps 733 mmHg 96%
11:00 +11°C° 0.2 mm 3 mps 733 mmHg 96%
12:00 +12°C° 0.2 mm 3 mps 734 mmHg 96%
13:00 +12°C° 0.2 mm 3 mps 734 mmHg 95%
14:00 +12°C° 0.1 mm 3 mps 734 mmHg 95%
15:00 +12°C° 0.1 mm 4 mps 733 mmHg 94%
16:00 +12°C° 0.1 mm 4 mps 733 mmHg 93%
17:00 +12°C° 0.1 mm 4 mps 734 mmHg 93%
18:00 +12°C° 0.1 mm 4 mps 734 mmHg 93%
19:00 +12°C° 0.1 mm 4 mps 734 mmHg 94%
20:00 +12°C° 0 mm 4 mps 734 mmHg 93%
21:00 +12°C° 0 mm 4 mps 734 mmHg 93%
22:00 +12°C° 0 mm 4 mps 734 mmHg 93%
23:00 +12°C° 0 mm 3 mps 734 mmHg 93%

3 November, Tuesday

Time Temperature Precipitation Wind Pressure Humidity
00:00 +12°C° 0 mm 3 mps 734 mmHg 93%
01:00 +12°C° 0 mm 3 mps 734 mmHg 93%
02:00 +12°C° 0 mm 3 mps 734 mmHg 93%
03:00 +12°C° 0 mm 3 mps 734 mmHg 94%
04:00 +12°C° 0 mm 3 mps 735 mmHg 94%
05:00 +12°C° 0 mm 3 mps 735 mmHg 94%
06:00 +12°C° 0 mm 3 mps 735 mmHg 94%
07:00 +12°C° 0 mm 3 mps 735 mmHg 94%
08:00 +13°C° 0.1 mm 3 mps 735 mmHg 92%
09:00 +14°C° 0.1 mm 3 mps 736 mmHg 90%
10:00 +14°C° 0.1 mm 3 mps 736 mmHg 88%
11:00 +14°C° 0.2 mm 3 mps 737 mmHg 87%
12:00 +14°C° 0.2 mm 4 mps 737 mmHg 87%
13:00 +14°C° 0.2 mm 5 mps 737 mmHg 86%
14:00 +13°C° 0.1 mm 4 mps 737 mmHg 84%
15:00 +12°C° 0.1 mm 4 mps 738 mmHg 83%
16:00 +11°C° 0.1 mm 4 mps 738 mmHg 81%
17:00 +10°C° 0.1 mm 3 mps 738 mmHg 82%
18:00 +10°C° 0.1 mm 3 mps 739 mmHg 82%
19:00 +10°C° 0.1 mm 3 mps 740 mmHg 83%
20:00 +10°C° 0.2 mm 2 mps 740 mmHg 82%
21:00 +10°C° 0.2 mm 2 mps 740 mmHg 82%
22:00 +11°C° 0.2 mm 1 mps 740 mmHg 81%
23:00 +9°C° 0.2 mm 2 mps 740 mmHg 82%

4 November, Wednesday

Time Temperature Precipitation Wind Pressure Humidity
00:00 +9°C° 0.2 mm 2 mps 740 mmHg 82%
01:00 +9°C° 0.2 mm 2 mps 740 mmHg 83%
02:00 +8°C° 0.7 mm 2 mps 740 mmHg 84%
03:00 +8°C° 0.7 mm 2 mps 740 mmHg 86%
04:00 +8°C° 0.7 mm 2 mps 740 mmHg 87%
05:00 +7°C° 0.8 mm 2 mps 741 mmHg 86%
06:00 +7°C° 0.8 mm 2 mps 741 mmHg 85%
07:00 +7°C° 0.8 mm 2 mps 741 mmHg 84%
08:00 +7°C° 0.1 mm 2 mps 741 mmHg 80%
09:00 +9°C° 0.1 mm 1 mps 742 mmHg 76%
10:00 +9°C° 0.1 mm 1 mps 742 mmHg 73%
11:00 +9°C° 0 mm 1 mps 742 mmHg 71%
12:00 +9°C° 0 mm 1 mps 742 mmHg 70%
13:00 +10°C° 0 mm 1 mps 742 mmHg 69%
14:00 +10°C° 0 mm 1 mps 742 mmHg 70%
15:00 +9°C° 0 mm 1 mps 742 mmHg 72%
16:00 +9°C° 0 mm 1 mps 742 mmHg 73%
17:00 +8°C° 0 mm 2 mps 742 mmHg 75%
18:00 +8°C° 0 mm 2 mps 742 mmHg 76%
19:00 +8°C° 0 mm 2 mps 742 mmHg 78%
20:00 +8°C° 0 mm 2 mps 743 mmHg 78%
21:00 +7°C° 0 mm 2 mps 743 mmHg 79%
22:00 +7°C° 0 mm 2 mps 743 mmHg 80%
23:00 +7°C° 0.1 mm 2 mps 743 mmHg 81%

5 November, Thursday

Time Temperature Precipitation Wind Pressure Humidity
00:00 +7°C° 0.1 mm 3 mps 743 mmHg 82%
01:00 +7°C° 0.1 mm 3 mps 743 mmHg 83%
02:00 +7°C° 0.2 mm 3 mps 743 mmHg 84%
03:00 +7°C° 0.2 mm 3 mps 743 mmHg 85%
04:00 +7°C° 0.2 mm 3 mps 743 mmHg 86%
05:00 +7°C° 0.1 mm 3 mps 743 mmHg 86%
06:00 +7°C° 0.1 mm 3 mps 744 mmHg 86%
07:00 +7°C° 0.1 mm 3 mps 744 mmHg 87%
08:00 +7°C° 0 mm 3 mps 744 mmHg 86%
09:00 +7°C° 0 mm 3 mps 744 mmHg 86%
10:00 +7°C° 0 mm 3 mps 744 mmHg 85%
11:00 +7°C° 0 mm 3 mps 745 mmHg 85%
12:00 +7°C° 0 mm 3 mps 745 mmHg 84%
13:00 +7°C° 0 mm 3 mps 745 mmHg 84%
14:00 +7°C° 0 mm 2 mps 745 mmHg 84%
15:00 +7°C° 0 mm 2 mps 745 mmHg 83%
16:00 +7°C° 0 mm 2 mps 745 mmHg 83%
17:00 +7°C° 0 mm 2 mps 746 mmHg 84%
18:00 +8°C° 0 mm 1 mps 746 mmHg 84%
19:00 +8°C° 0 mm 1 mps 746 mmHg 84%
20:00 +7°C° 0 mm 1 mps 746 mmHg 86%
21:00 +7°C° 0 mm 1 mps 747 mmHg 87%
22:00 +6°C° 0 mm 1 mps 747 mmHg 88%
23:00 +6°C° 0 mm 1 mps 747 mmHg 88%
Show more